Weather History for KAHQ - January, 2012

Change the Weather History Date:

Saturday, January 28, 2012

  Actual Average Record
Temperature  
Mean Temperature 32 °F -  
Max Temperature 45 °F 33 °F 59 °F (2015)
Min Temperature 20 °F 11 °F -15 °F (1972)
Degree Days  
Heating Degree Days 32    
Moisture  
Dew Point 13 °F    
Average Humidity 49    
Maximum Humidity 81    
Minimum Humidity 22    
Precipitation  
Precipitation 0.00 in - - ()
Sea Level Pressure  
Sea Level Pressure 30.18 in    
Wind  
Wind Speed 15 mph (West)    
Max Wind Speed 26 mph    
Max Gust Speed 38 mph    
Visibility 10 miles    
Events      
Averages and records for this station are not official NWS values.
T = Trace of Precipitation, MM = Missing Value Source: NWS Daily Summary

Daily Weather History Graph

Daily Weather History Graph

Search for Another Location

Airport or City:

Trip Planner

Search our weather history database for the weather conditions in past years. The results will help you decide how hot, cold, wet, or windy it might be!

Date:

Astronomy

Jan. 28, 2012 Rise Set
Actual Time 7:41 AM CST 5:37 PM CST
Civil Twilight 7:12 AM CST 6:06 PM CST
Nautical Twilight 6:38 AM CST 6:40 PM CST
Astronomical Twilight 6:06 AM CST 7:12 PM CST
Moon 10:00 AM CST (1/28) 11:31 PM CST (1/28)
Length of Visible Light 10h 54m
Length of Day
9h 55m
Waxing Crescent, 28% of the Moon is Illuminated
Jan 28
Waxing Crescent
Jan 30
First Quarter
Feb 7
Full
Feb 14
Last Quarter
Feb 21
New

Hourly Weather History & Observations

Time (CST) Temp. Windchill Dew Point Humidity Pressure Visibility Wind Dir Wind Speed Gust Speed Precip Events Conditions
12:15 AM 28.9 °F 17.7 °F 17.6 °F 63% 30.20 in 10.0 mi WNW 15.0 mph - N/A   Clear
12:35 AM 28.0 °F 16.5 °F 17.4 °F 64% 30.20 in 10.0 mi WNW 15.0 mph - N/A   Clear
12:55 AM 27.7 °F 16.6 °F 17.2 °F 65% 30.19 in 10.0 mi West 13.8 mph - N/A   Clear
1:15 AM 27.3 °F 16.6 °F 17.1 °F 65% 30.19 in 10.0 mi West 12.7 mph - N/A   Clear
1:35 AM 27.1 °F 14.9 °F 16.9 °F 65% 30.19 in 10.0 mi West 16.1 mph - N/A   Clear
1:55 AM 27.5 °F 15.0 °F 17.1 °F 65% 30.20 in 10.0 mi West 17.3 mph - N/A   Clear
2:15 AM 26.8 °F 14.9 °F 16.7 °F 66% 30.20 in 10.0 mi West 15.0 mph - N/A   Clear
2:35 AM 26.2 °F 14.2 °F 16.7 °F 67% 30.21 in 10.0 mi West 15.0 mph - N/A   Clear
2:55 AM 26.4 °F 14.5 °F 16.9 °F 67% 30.21 in 10.0 mi West 15.0 mph - N/A   Clear
3:15 AM 26.4 °F 15.0 °F 17.1 °F 68% 30.22 in 10.0 mi West 13.8 mph - N/A   Clear
3:35 AM 25.7 °F 13.5 °F 17.2 °F 70% 30.22 in 10.0 mi West 15.0 mph - N/A   Clear
3:55 AM 25.3 °F 14.7 °F 17.4 °F 72% 30.21 in 10.0 mi West 11.5 mph - N/A   Clear
4:15 AM 24.6 °F 15.1 °F 17.2 °F 74% 30.21 in 10.0 mi West 9.2 mph - N/A   Clear
4:35 AM 21.7 °F 17.0 °F 16.0 °F 78% 30.20 in 10.0 mi West 3.5 mph - N/A   Clear
4:55 AM 22.1 °F - 16.3 °F 79% 30.19 in 10.0 mi Calm Calm - N/A   Clear
5:15 AM 20.5 °F 11.7 °F 15.6 °F 81% 30.19 in 10.0 mi West 6.9 mph - N/A   Clear
5:35 AM 21.7 °F 10.8 °F 16.2 °F 79% 30.19 in 10.0 mi West 10.4 mph - N/A   Clear
6:15 AM 22.1 °F 12.8 °F 15.8 °F 77% 30.18 in 10.0 mi West 8.1 mph - N/A   Clear
6:35 AM 22.3 °F 13.0 °F 16.2 °F 77% 30.19 in 10.0 mi West 8.1 mph - N/A   Clear
6:55 AM 23.0 °F 12.4 °F 16.2 °F 75% 30.20 in 10.0 mi WSW 10.4 mph - N/A   Clear
7:15 AM 23.4 °F 12.8 °F 15.8 °F 73% 30.20 in 10.0 mi WSW 10.4 mph - N/A   Clear
7:35 AM 23.0 °F 10.6 °F 15.8 °F 74% 30.21 in 10.0 mi WSW 13.8 mph - N/A   Clear
7:55 AM 23.7 °F 10.1 °F 15.8 °F 72% 30.22 in 10.0 mi WSW 17.3 mph - N/A   Clear
8:15 AM 23.5 °F 9.4 °F 15.8 °F 72% 30.23 in 10.0 mi West 18.4 mph 21.9 mph N/A   Clear
8:35 AM 24.4 °F 12.4 °F 15.4 °F 69% 30.22 in 10.0 mi West 13.8 mph - N/A   Clear
8:55 AM 25.3 °F 13.6 °F 15.4 °F 66% 30.22 in 10.0 mi WSW 13.8 mph - N/A   Clear
9:15 AM 27.3 °F 16.1 °F 15.8 °F 62% 30.21 in 10.0 mi West 13.8 mph - N/A   Clear
9:35 AM 30.2 °F 20.2 °F 15.8 °F 55% 30.21 in 10.0 mi WSW 12.7 mph - N/A   Clear
9:55 AM 32.4 °F 22.1 °F 15.4 °F 50% 30.20 in 10.0 mi WSW 15.0 mph 19.6 mph N/A   Clear
10:15 AM 35.8 °F 25.4 °F 15.3 °F 43% 30.20 in 10.0 mi WSW 18.4 mph 24.2 mph N/A   Clear
10:35 AM 36.9 °F 25.6 °F 14.2 °F 40% 30.19 in 10.0 mi West 23.0 mph 29.9 mph N/A   Scattered Clouds
10:55 AM 37.0 °F 25.6 °F 14.5 °F 40% 30.19 in 10.0 mi West 24.2 mph 31.1 mph N/A   Scattered Clouds
11:15 AM 37.6 °F 27.1 °F 14.5 °F 39% 30.19 in 10.0 mi West 20.7 mph 31.1 mph N/A   Clear
11:35 AM 39.2 °F 28.7 °F 13.1 °F 34% 30.19 in 10.0 mi West 23.0 mph 32.2 mph N/A   Clear
11:55 AM 39.7 °F 29.0 °F 13.6 °F 35% 30.19 in 10.0 mi WNW 25.3 mph 31.1 mph N/A   Clear
12:15 PM 40.6 °F 30.7 °F 13.6 °F 33% 30.18 in 10.0 mi West 23.0 mph 28.8 mph N/A   Clear
12:35 PM 41.7 °F 32.3 °F 13.8 °F 32% 30.17 in 10.0 mi West 21.9 mph 29.9 mph N/A   Clear
12:55 PM 43.7 °F 35.2 °F 12.7 °F 29% 30.17 in 10.0 mi WNW 20.7 mph 29.9 mph N/A   Clear
1:15 PM 44.1 °F 35.2 °F 12.0 °F 27% 30.16 in 10.0 mi WNW 23.0 mph 32.2 mph N/A   Clear
1:35 PM 44.8 °F 35.7 °F 11.3 °F 26% 30.15 in 10.0 mi WNW 25.3 mph 33.4 mph N/A   Clear
1:55 PM 45.0 °F 36.4 °F 11.1 °F 25% 30.15 in 10.0 mi WNW 23.0 mph 33.4 mph N/A   Clear
2:15 PM 45.5 °F 36.5 °F 10.4 °F 24% 30.15 in 10.0 mi WNW 26.5 mph 33.4 mph N/A   Clear
2:35 PM 45.5 °F 36.9 °F 9.0 °F 23% 30.15 in 10.0 mi WNW 24.2 mph 38.0 mph N/A   Clear
3:15 PM 45.5 °F 37.6 °F 8.6 °F 22% 30.15 in 10.0 mi West 20.7 mph 33.4 mph N/A   Clear
3:35 PM 45.9 °F 38.0 °F 8.6 °F 22% 30.15 in 10.0 mi West 20.7 mph 28.8 mph N/A   Scattered Clouds
3:55 PM 45.5 °F 37.3 °F 8.2 °F 22% 30.15 in 10.0 mi WNW 21.9 mph 27.6 mph N/A   Scattered Clouds
4:15 PM 44.8 °F 37.7 °F 7.3 °F 22% 30.15 in 10.0 mi WNW 16.1 mph 27.6 mph N/A   Clear
4:35 PM 43.9 °F 35.4 °F 8.2 °F 23% 30.15 in 10.0 mi West 20.7 mph 25.3 mph N/A   Clear
4:55 PM 42.3 °F 35.5 °F 8.1 °F 25% 30.15 in 10.0 mi WNW 12.7 mph - N/A   Clear
5:15 PM 39.6 °F 33.0 °F 9.1 °F 29% 30.15 in 10.0 mi West 10.4 mph - N/A   Clear
5:35 PM 37.6 °F 31.6 °F 8.1 °F 29% 30.15 in 10.0 mi West 8.1 mph - N/A   Clear
5:55 PM 35.8 °F 29.4 °F 7.7 °F 31% 30.15 in 10.0 mi West 8.1 mph - N/A   Clear
6:15 PM 34.9 °F 28.3 °F 6.8 °F 31% 30.15 in 10.0 mi West 8.1 mph - N/A   Clear
6:35 PM 34.3 °F 27.7 °F 6.6 °F 31% 30.15 in 10.0 mi WSW 8.1 mph - N/A   Clear
6:55 PM 33.3 °F 27.1 °F 7.2 °F 34% 30.15 in 10.0 mi WSW 6.9 mph - N/A   Clear
7:15 PM 32.0 °F 24.8 °F 7.2 °F 35% 30.15 in 10.0 mi WSW 8.1 mph - N/A   Clear
7:35 PM 32.0 °F 24.8 °F 8.4 °F 37% 30.15 in 10.0 mi WSW 8.1 mph - N/A   Clear
7:55 PM 31.5 °F 23.5 °F 8.8 °F 39% 30.15 in 10.0 mi WSW 9.2 mph - N/A   Clear
8:15 PM 31.5 °F 23.5 °F 8.6 °F 38% 30.14 in 10.0 mi WSW 9.2 mph - N/A   Clear
8:35 PM 31.6 °F 23.7 °F 8.2 °F 38% 30.14 in 10.0 mi WSW 9.2 mph - N/A   Clear
8:55 PM 31.8 °F 23.3 °F 8.2 °F 37% 30.14 in 10.0 mi WSW 10.4 mph - N/A   Clear
9:15 PM 31.3 °F 23.3 °F 7.9 °F 37% 30.14 in 10.0 mi WSW 9.2 mph - N/A   Clear
9:35 PM 31.1 °F 22.4 °F 8.4 °F 39% 30.13 in 10.0 mi WSW 10.4 mph - N/A   Clear
9:55 PM 31.6 °F 23.1 °F 8.6 °F 38% 30.13 in 10.0 mi WSW 10.4 mph - N/A   Clear
10:15 PM 31.1 °F 22.4 °F 8.6 °F 39% 30.13 in 10.0 mi WSW 10.4 mph - N/A   Clear
10:35 PM 30.7 °F 22.0 °F 8.8 °F 40% 30.13 in 10.0 mi WSW 10.4 mph - N/A   Clear
10:55 PM 31.1 °F 21.9 °F 8.6 °F 39% 30.13 in 10.0 mi WSW 11.5 mph - N/A   Clear
11:15 PM 29.3 °F 19.1 °F 9.5 °F 44% 30.13 in 10.0 mi West 12.7 mph - N/A   Clear
11:35 PM 29.7 °F 19.6 °F 9.5 °F 43% 30.13 in 10.0 mi West 12.7 mph - N/A   Clear